Simultaneous Nadir Overpasses (SNOs) Predictions

Prediction of SNOs between NOAA-19 and TERRA Satellite Orbit:

Table of predicted SNOs for the next 14.0 days since TLE Epoch: 9/4/2016
Index Date (NOAA-19) Time (NOAA-19) Lat,Lon (NOAA-19) SZA (NOAA-19 ) Date (TERRA) Time (TERRA) Lat,Lon (TERRA) SZA (TERRA ) Distance(km) Time Diff (sec)
1 09/05/2016 09:11:11 74.47, 49.39 67.94 09/05/2016 09:12:22 74.35, 50.31 67.87 30.83 71
2 09/05/2016 10:02:10 -74.16,-142.54 112.32 09/05/2016 10:01:53 -74.17,-142.47 112.32 2.31 17
3 09/07/2016 14:45:11 -74.23, 146.59 111.44 09/07/2016 14:46:07 -74.23, 146.62 111.42 1.36 56
4 09/07/2016 15:36:06 74.16, -45.97 68.52 09/07/2016 15:35:34 74.15, -45.92 68.51 1.61 32
5 09/09/2016 20:19:07 74.23,-116.87 69.43 09/09/2016 20:19:48 74.21,-116.85 69.41 2.29 41
6 09/09/2016 21:10:11 -74.16, 50.56 110.63 09/09/2016 21:09:17 -74.14, 50.61 110.66 2.42 54
7 09/12/2016 01:53:11 -74.19, -20.22 109.76 09/12/2016 01:53:31 -74.19, -20.33 109.75 3.37 20
8 09/12/2016 02:44:06 74.12, 147.23 70.20 09/12/2016 02:42:58 74.11, 147.13 70.17 3.31 68
9 09/14/2016 07:27:07 74.20, 76.32 71.13 09/14/2016 07:27:11 74.21, 76.29 71.13 1.18 4
10 09/14/2016 08:17:56 -73.46,-114.57 109.51 09/14/2016 08:16:51 -73.52,-117.61 109.61 96.34 65
11 09/16/2016 12:10:11 74.48, 4.87 72.22 09/16/2016 12:11:22 74.35, 5.56 72.14 24.79 71
12 09/16/2016 13:01:10 -74.18, 172.91 108.03 09/16/2016 13:00:53 -74.18, 172.79 108.04 3.61 17




NCC Satellite Simultaneous Nadir Overpasses (SNOs) Prediction Service
